Showing default

ALOUETTE 2, 1804

Orbit data source: Space-Track

ALOUETTE 2, 1804 is a payload satellite owned by DRTE (CA) in LEO that was launched on Mon, 29 Nov 1965 UTC via a THOR SLV-2 AGENA B launch vehicle from the Air Force Western Test Range (AFWTR). Payload-class satellites include a variety of spacecraft equipped with specific instruments for various scientific and technological missions. These include communications satellites like Starlink; space stations such as the ISS; scientific satellites like the Hubble; Earth observation satellites from companies like Planet Labs, Umbra, and HawkEye 360; GPS; miniature CubeSats for education and research; and military/defense satellites.

Loading next visibility...
Identifier
1804, 1965-098A
Orbit
LEO
Country
Flag of CACA
Related business
Manufacturer
DEHAVT/RCAV
Mission
Civil Science
Bus & Motor
ALOUETTE, Unknown motor
Mass
145 kg wet, 145 kg dry
Launch date (UTC)
1965-11-29 (60 years ago)
Launch vehicle
THOR SLV-2 AGENA B
Launch site
Air Force Western Test Range (AFWTR)
Object type
Payload
Rocket body
Debris
Shape & HBR
Ell + 1 Rod, 36.5 m
Radar Cross Section
0.732 m², Medium (>0.1 m² and < 1m²)

Expand to show TLE details & history
Last TLE update: 14 hours ago

TLE from 14 hours ago
0 ALOUETTE 2
1 01804U 65098A   25258.16581040  .00000934  00000-0  30095-3 0  9994
2 01804  79.8023 150.5861 1331633  70.0164 303.9131 12.27953630645517
Epoch: 2025-09-15T03:58Z
TLE epoch observation values (Epoch: 2025-09-15T03:58:46.018Z)
Latitude
-0.00003°
Longitude
96.51998°
Altitude
1,078.823 km
Speed
7.531 km/s
True Right ascension
10h 02m 20s
True Declination
0° 00' 00"
Sunlit
Object was in daylight at epoch
Visualization orbit readout
Latitude
Unknown
Longitude
Unknown
Altitude
Unknown
Speed
Unknown
Apparent Right ascension
Unknown
Apparent Declination
Unknown
Sunlit
N/A
Visualization observer readout
Local Sidereal Time
10:17:43
Azimuth
Unknown
Elevation
Unknown
Doppler factor
Unknown
Orbital elements
Apogee altitude
2,611.98 km
Perigee altitude
499.039 km
Semi-major axis
7,933.646 km
Eccentricity
0.13316
Inclination
79.8023°
RAAN
150.5861°
Arg. of periapsis
70.0164°
True anomaly
290.09565°
Mean anomaly
303.9131°
Eccentric anomaly
297.12241°
Mean motion
3.07138 °/min
Orbital period
117.21 mins
BSTAR
0.00030095
Loading maneuver chart data...
Computing Atmospheric mass density...
Loading historical data...
Loading historical data...
Loading historical data...
Loading historical data...
Loading historical data...
Loading historical data...
Loading historical data...

Documentation

Showing up to 5 results
|